Time,TemperatureF,DewpointF,PressureIn,WindDirection,WindDirectionDegrees,WindSpeedMPH,WindSpeedGustMPH,Humidity,HourlyPrecipIn,Conditions,Clouds,dailyrainin,SoftwareType,DateUTC
2013-04-20 00:01:00,33.8,26.0,30.19,South,180,0.0,3.8,73,0.00,,,0.00,WUHU21623XXSP,2013-04-20 04:01:00,
2013-04-20 00:02:00,33.8,26.0,30.19,South,180,0.0,3.8,73,0.00,,,0.00,WUHU21623XXSP,2013-04-20 04:02:00,
2013-04-20 00:07:00,33.8,26.0,30.19,ENE,67,1.8,2.9,73,0.00,,,0.00,WUHU21623XXSP,2013-04-20 04:07:00,
2013-04-20 00:12:00,33.8,26.0,30.20,East,90,2.5,2.5,73,0.00,,,0.00,WUHU21623XXSP,2013-04-20 04:12:00,
2013-04-20 00:17:00,33.8,26.3,30.19,ESE,112,0.0,2.5,74,0.00,,,0.00,WUHU21623XXSP,2013-04-20 04:17:00,
2013-04-20 00:22:00,33.6,26.1,30.19,East,90,2.7,2.7,74,0.00,,,0.00,WUHU21623XXSP,2013-04-20 04:22:00,
2013-04-20 00:27:00,33.6,26.1,30.20,SSE,157,6.5,6.5,74,0.00,,,0.00,WUHU21623XXSP,2013-04-20 04:27:00,
2013-04-20 00:32:00,33.6,26.1,30.20,ESE,112,2.9,6.5,74,0.00,,,0.00,WUHU21623XXSP,2013-04-20 04:32:00,
2013-04-20 00:37:00,33.6,26.1,30.20,South,180,0.0,2.9,74,0.00,,,0.00,WUHU21623XXSP,2013-04-20 04:37:00,
2013-04-20 00:42:00,33.6,26.1,30.20,NE,45,3.4,3.4,74,0.00,,,0.00,WUHU21623XXSP,2013-04-20 04:42:00,
2013-04-20 00:47:00,33.4,26.0,30.20,South,180,3.8,3.8,74,0.00,,,0.00,WUHU21623XXSP,2013-04-20 04:47:00,
2013-04-20 00:52:00,33.4,25.6,30.20,East,90,2.2,3.8,73,0.00,,,0.00,WUHU21623XXSP,2013-04-20 04:52:00,
2013-04-20 00:57:00,33.4,25.6,30.20,NE,45,2.2,3.8,73,0.00,,,0.00,WUHU21623XXSP,2013-04-20 04:57:00,
2013-04-20 01:02:00,33.4,25.3,30.20,East,90,2.9,4.0,72,0.00,,,0.00,WUHU21623XXSP,2013-04-20 05:02:00,
2013-04-20 01:07:00,33.3,25.1,30.21,SSE,157,2.2,4.0,72,0.00,,,0.00,WUHU21623XXSP,2013-04-20 05:07:00,
2013-04-20 01:12:00,33.3,25.1,30.21,NW,315,0.0,2.2,72,0.00,,,0.00,WUHU21623XXSP,2013-04-20 05:12:00,
2013-04-20 01:17:00,33.1,24.7,30.22,SE,135,1.1,2.0,71,0.00,,,0.00,WUHU21623XXSP,2013-04-20 05:17:00,
2013-04-20 01:22:00,33.1,24.3,30.22,NE,45,1.1,3.8,70,0.00,,,0.00,WUHU21623XXSP,2013-04-20 05:22:00,
2013-04-20 01:27:00,33.1,24.0,30.23,NE,45,1.1,3.8,69,0.00,,,0.00,WUHU21623XXSP,2013-04-20 05:27:00,
2013-04-20 01:32:00,33.1,23.3,30.23,North,0,0.0,1.1,67,0.00,,,0.00,WUHU21623XXSP,2013-04-20 05:32:00,
2013-04-20 01:37:00,32.9,22.4,30.23,ESE,112,5.8,5.8,65,0.00,,,0.00,WUHU21623XXSP,2013-04-20 05:37:00,
2013-04-20 01:42:00,32.7,22.4,30.23,SE,135,3.8,5.8,65,0.00,,,0.00,WUHU21623XXSP,2013-04-20 05:42:00,
2013-04-20 01:47:00,32.7,21.8,30.23,ENE,67,3.8,4.0,64,0.00,,,0.00,WUHU21623XXSP,2013-04-20 05:47:00,
2013-04-20 01:52:00,32.7,21.5,30.23,SSE,157,0.0,6.5,63,0.00,,,0.00,WUHU21623XXSP,2013-04-20 05:52:00,
2013-04-20 01:57:00,32.5,21.3,30.23,WSW,247,0.0,6.5,63,0.00,,,0.00,WUHU21623XXSP,2013-04-20 05:57:00,
2013-04-20 02:02:00,32.4,21.2,30.24,WSW,247,0.0,4.0,63,0.00,,,0.00,WUHU21623XXSP,2013-04-20 06:02:00,
2013-04-20 02:07:00,32.2,21.0,30.24,ESE,112,0.0,6.7,63,0.00,,,0.00,WUHU21623XXSP,2013-04-20 06:07:00,
2013-04-20 02:12:00,32.2,21.0,30.25,ESE,112,1.6,6.7,64,0.00,,,0.00,WUHU21623XXSP,2013-04-20 06:12:00,
2013-04-20 02:17:00,32.2,21.0,30.25,ESE,112,0.0,3.8,63,0.00,,,0.00,WUHU21623XXSP,2013-04-20 06:17:00,
2013-04-20 02:22:00,32.2,21.0,30.25,SSW,202,0.0,3.8,63,0.00,,,0.00,WUHU21623XXSP,2013-04-20 06:22:00,
2013-04-20 02:27:00,31.8,20.3,30.25,SSE,157,3.1,3.1,62,0.00,,,0.00,WUHU21623XXSP,2013-04-20 06:27:00,
2013-04-20 02:32:00,31.8,19.9,30.26,SSE,157,3.1,3.1,61,0.00,,,0.00,WUHU21623XXSP,2013-04-20 06:32:00,
2013-04-20 02:38:00,31.6,19.8,30.26,ESE,112,1.3,3.1,61,0.00,,,0.00,WUHU21623XXSP,2013-04-20 06:38:00,
2013-04-20 02:43:00,31.6,19.8,30.26,SSE,157,1.3,3.1,61,0.00,,,0.00,WUHU21623XXSP,2013-04-20 06:43:00,
2013-04-20 02:48:00,31.6,20.1,30.26,ESE,112,1.6,1.6,62,0.00,,,0.00,WUHU21623XXSP,2013-04-20 06:48:00,
2013-04-20 02:53:00,31.6,20.1,30.26,ESE,112,2.2,2.2,62,0.00,,,0.00,WUHU21623XXSP,2013-04-20 06:53:00,
2013-04-20 02:58:00,31.6,20.1,30.27,SE,135,0.0,5.4,62,0.00,,,0.00,WUHU21623XXSP,2013-04-20 06:58:00,
2013-04-20 03:03:00,31.6,20.1,30.27,ENE,67,4.5,5.4,62,0.00,,,0.00,WUHU21623XXSP,2013-04-20 07:03:00,
2013-04-20 03:08:00,31.6,20.1,30.27,East,90,2.5,4.5,61,0.00,,,0.00,WUHU21623XXSP,2013-04-20 07:08:00,
2013-04-20 03:13:00,31.3,19.4,30.28,SE,135,6.0,13.2,61,0.00,,,0.00,WUHU21623XXSP,2013-04-20 07:13:00,
2013-04-20 03:18:00,31.3,19.8,30.28,SSE,157,0.0,13.2,62,0.00,,,0.00,WUHU21623XXSP,2013-04-20 07:18:00,
2013-04-20 03:23:00,31.3,19.8,30.28,SE,135,3.4,5.6,62,0.00,,,0.00,WUHU21623XXSP,2013-04-20 07:23:00,
2013-04-20 03:28:00,30.9,19.4,30.28,ESE,112,2.5,3.4,62,0.00,,,0.00,WUHU21623XXSP,2013-04-20 07:28:00,
2013-04-20 03:33:00,30.9,19.4,30.29,East,90,0.9,3.6,62,0.00,,,0.00,WUHU21623XXSP,2013-04-20 07:33:00,
2013-04-20 03:38:00,30.7,19.6,30.29,South,180,5.1,5.1,63,0.00,,,0.00,WUHU21623XXSP,2013-04-20 07:38:00,
2013-04-20 03:43:00,30.7,19.9,30.29,ESE,112,3.1,18.1,64,0.00,,,0.00,WUHU21623XXSP,2013-04-20 07:43:00,
2013-04-20 03:48:00,30.6,19.8,30.30,East,90,3.1,18.1,64,0.00,,,0.00,WUHU21623XXSP,2013-04-20 07:48:00,
2013-04-20 03:53:00,30.4,19.9,30.30,ESE,112,2.2,8.3,65,0.00,,,0.00,WUHU21623XXSP,2013-04-20 07:53:00,
2013-04-20 03:58:00,30.4,20.3,30.30,East,90,3.4,8.3,66,0.00,,,0.00,WUHU21623XXSP,2013-04-20 07:58:00,
2013-04-20 04:03:00,30.2,20.1,30.30,SE,135,2.2,4.5,66,0.00,,,0.00,WUHU21623XXSP,2013-04-20 08:03:00,
2013-04-20 04:08:00,30.2,20.1,30.31,SE,135,0.0,2.2,66,0.00,,,0.00,WUHU21623XXSP,2013-04-20 08:08:00,
2013-04-20 04:13:00,30.0,20.3,30.31,SE,135,0.0,1.3,67,0.00,,,0.00,WUHU21623XXSP,2013-04-20 08:13:00,
2013-04-20 04:18:00,30.0,20.3,30.32,East,90,6.7,6.7,67,0.00,,,0.00,WUHU21623XXSP,2013-04-20 08:18:00,
2013-04-20 04:23:00,29.7,20.4,30.33,East,90,3.1,6.7,68,0.00,,,0.00,WUHU21623XXSP,2013-04-20 08:23:00,
2013-04-20 04:28:00,29.5,20.2,30.32,ESE,112,2.5,3.1,68,0.00,,,0.00,WUHU21623XXSP,2013-04-20 08:28:00,
2013-04-20 04:33:00,29.3,20.0,30.33,East,90,1.6,2.5,68,0.00,,,0.00,WUHU21623XXSP,2013-04-20 08:33:00,
2013-04-20 04:38:00,29.1,19.9,30.33,East,90,0.0,1.6,68,0.00,,,0.00,WUHU21623XXSP,2013-04-20 08:38:00,
2013-04-20 04:43:00,29.1,19.9,30.34,East,90,0.0,3.1,68,0.00,,,0.00,WUHU21623XXSP,2013-04-20 08:43:00,
2013-04-20 04:48:00,29.1,19.9,30.34,East,90,2.9,3.1,68,0.00,,,0.00,WUHU21623XXSP,2013-04-20 08:48:00,
2013-04-20 04:53:00,29.1,19.9,30.35,SSW,202,4.7,4.7,68,0.00,,,0.00,WUHU21623XXSP,2013-04-20 08:53:00,
2013-04-20 04:58:00,28.9,19.9,30.35,East,90,2.5,4.7,68,0.00,,,0.00,WUHU21623XXSP,2013-04-20 08:58:00,
2013-04-20 05:03:00,28.8,20.3,30.36,East,90,3.1,4.7,70,0.00,,,0.00,WUHU21623XXSP,2013-04-20 09:03:00,
2013-04-20 05:09:00,28.2,20.4,30.36,ESE,112,4.0,4.7,72,0.00,,,0.00,WUHU21623XXSP,2013-04-20 09:09:00,
2013-04-20 05:14:00,28.2,20.4,30.36,South,180,5.8,5.8,72,0.00,,,0.00,WUHU21623XXSP,2013-04-20 09:14:00,
2013-04-20 05:19:00,28.0,20.2,30.37,NE,45,1.3,5.8,72,0.00,,,0.00,WUHU21623XXSP,2013-04-20 09:19:00,
2013-04-20 05:24:00,28.0,20.2,30.37,SE,135,1.6,3.8,72,0.00,,,0.00,WUHU21623XXSP,2013-04-20 09:24:00,
2013-04-20 05:29:00,28.0,20.2,30.37,East,90,5.1,5.1,72,0.00,,,0.00,WUHU21623XXSP,2013-04-20 09:29:00,
2013-04-20 05:34:00,27.9,20.0,30.38,East,90,6.3,6.3,72,0.00,,,0.00,WUHU21623XXSP,2013-04-20 09:34:00,
2013-04-20 05:39:00,27.7,19.8,30.38,ESE,112,1.8,6.3,72,0.00,,,0.00,WUHU21623XXSP,2013-04-20 09:39:00,
2013-04-20 05:44:00,27.7,19.8,30.39,SE,135,0.0,6.3,72,0.00,,,0.00,WUHU21623XXSP,2013-04-20 09:44:00,
2013-04-20 05:49:00,27.5,19.7,30.39,ESE,112,2.5,2.5,72,0.00,,,0.00,WUHU21623XXSP,2013-04-20 09:49:00,
2013-04-20 05:54:00,27.5,19.7,30.39,NNW,337,0.0,2.5,72,0.00,,,0.00,WUHU21623XXSP,2013-04-20 09:54:00,
2013-04-20 05:59:00,27.5,19.7,30.39,South,180,0.0,1.6,72,0.00,,,0.00,WUHU21623XXSP,2013-04-20 09:59:00,
2013-04-20 06:04:00,27.3,19.5,30.39,East,90,2.9,2.9,72,0.00,,,0.00,WUHU21623XXSP,2013-04-20 10:04:00,
2013-04-20 06:09:00,27.3,19.5,30.40,SSE,157,1.3,6.7,72,0.00,,,0.00,WUHU21623XXSP,2013-04-20 10:09:00,
2013-04-20 06:14:00,27.3,19.2,30.40,East,90,4.9,6.7,71,0.00,,,0.00,WUHU21623XXSP,2013-04-20 10:14:00,
2013-04-20 06:19:00,27.3,19.2,30.40,East,90,3.6,5.6,71,0.00,,,0.00,WUHU21623XXSP,2013-04-20 10:19:00,
2013-04-20 06:24:00,27.1,19.0,30.41,South,180,3.8,3.8,71,0.00,,,0.00,WUHU21623XXSP,2013-04-20 10:24:00,
2013-04-20 06:29:00,27.1,19.0,30.40,ESE,112,6.3,6.3,71,0.00,,,0.00,WUHU21623XXSP,2013-04-20 10:29:00,
2013-04-20 06:34:00,27.1,19.0,30.41,NNE,22,2.2,6.3,71,0.00,,,0.00,WUHU21623XXSP,2013-04-20 10:34:00,
2013-04-20 06:39:00,27.3,19.2,30.42,East,90,2.9,3.8,71,0.00,,,0.00,WUHU21623XXSP,2013-04-20 10:39:00,
2013-04-20 06:44:00,27.3,19.2,30.43,ENE,67,7.4,7.4,71,0.00,,,0.00,WUHU21623XXSP,2013-04-20 10:44:00,
2013-04-20 06:49:00,27.5,19.0,30.43,ESE,112,0.0,7.4,70,0.00,,,0.00,WUHU21623XXSP,2013-04-20 10:49:00,
2013-04-20 06:54:00,27.3,18.5,30.43,East,90,6.0,6.0,69,0.00,,,0.00,WUHU21623XXSP,2013-04-20 10:54:00,
2013-04-20 06:59:00,27.5,18.7,30.43,ENE,67,2.9,17.9,69,0.00,,,0.00,WUHU21623XXSP,2013-04-20 10:59:00,
2013-04-20 07:04:00,27.7,18.5,30.43,East,90,3.4,17.9,68,0.00,,,0.00,WUHU21623XXSP,2013-04-20 11:04:00,
2013-04-20 07:09:00,27.7,18.5,30.43,SSE,157,1.3,4.9,68,0.00,,,0.00,WUHU21623XXSP,2013-04-20 11:09:00,
2013-04-20 07:14:00,27.7,18.9,30.44,ESE,112,0.0,4.0,69,0.00,,,0.00,WUHU21623XXSP,2013-04-20 11:14:00,
2013-04-20 07:19:00,27.5,18.7,30.44,East,90,5.8,5.8,69,0.00,,,0.00,WUHU21623XXSP,2013-04-20 11:19:00,
2013-04-20 07:24:00,27.7,18.9,30.45,SE,135,0.0,5.8,69,0.00,,,0.00,WUHU21623XXSP,2013-04-20 11:24:00,
2013-04-20 07:29:00,27.5,18.7,30.45,ESE,112,1.6,2.9,69,0.00,,,0.00,WUHU21623XXSP,2013-04-20 11:29:00,
2013-04-20 07:34:00,27.5,18.7,30.46,South,180,0.7,2.9,69,0.00,,,0.00,WUHU21623XXSP,2013-04-20 11:34:00,
2013-04-20 07:39:00,27.5,18.7,30.46,East,90,2.2,2.2,69,0.00,,,0.00,WUHU21623XXSP,2013-04-20 11:39:00,
2013-04-20 07:44:00,27.5,18.7,30.46,SE,135,2.0,3.1,69,0.00,,,0.00,WUHU21623XXSP,2013-04-20 11:44:00,
2013-04-20 07:50:00,27.7,18.7,30.47,SE,135,0.0,3.1,69,0.00,,,0.00,WUHU21623XXSP,2013-04-20 11:50:00,
2013-04-20 07:55:00,27.7,18.9,30.47,SSE,157,0.0,0.0,69,0.00,,,0.00,WUHU21623XXSP,2013-04-20 11:55:00,
2013-04-20 08:00:00,27.7,18.9,30.48,NE,45,0.0,3.6,69,0.00,,,0.00,WUHU21623XXSP,2013-04-20 12:00:00,
2013-04-20 08:05:00,28.0,19.2,30.48,ESE,112,0.0,3.6,69,0.00,,,0.00,WUHU21623XXSP,2013-04-20 12:05:00,
2013-04-20 08:10:00,28.0,19.2,30.48,East,90,0.0,2.2,69,0.00,,,0.00,WUHU21623XXSP,2013-04-20 12:10:00,
2013-04-20 08:15:00,28.0,18.9,30.49,SSE,157,2.5,8.1,68,0.00,,,0.00,WUHU21623XXSP,2013-04-20 12:15:00,
2013-04-20 08:20:00,28.2,19.0,30.49,East,90,0.0,8.1,68,0.00,,,0.00,WUHU21623XXSP,2013-04-20 12:20:00,
2013-04-20 08:25:00,28.2,19.0,30.49,WSW,247,3.1,3.1,68,0.00,,,0.00,WUHU21623XXSP,2013-04-20 12:25:00,
2013-04-20 08:30:00,28.2,19.0,30.50,SE,135,3.4,3.4,67,0.00,,,0.00,WUHU21623XXSP,2013-04-20 12:30:00,
2013-04-20 08:35:00,28.2,18.7,30.49,SSW,202,4.7,4.7,67,0.00,,,0.00,WUHU21623XXSP,2013-04-20 12:35:00,
2013-04-20 08:40:00,28.2,18.7,30.50,East,90,4.5,4.7,67,0.00,,,0.00,WUHU21623XXSP,2013-04-20 12:40:00,
2013-04-20 08:45:00,28.6,19.0,30.50,NNW,337,3.8,4.5,67,0.00,,,0.00,WUHU21623XXSP,2013-04-20 12:45:00,
2013-04-20 08:50:00,28.6,18.7,30.50,East,90,3.8,3.8,66,0.00,,,0.00,WUHU21623XXSP,2013-04-20 12:50:00,
2013-04-20 08:55:00,28.8,18.8,30.51,South,180,5.6,5.6,66,0.00,,,0.00,WUHU21623XXSP,2013-04-20 12:55:00,
2013-04-20 09:00:00,29.1,18.8,30.51,NNE,22,1.8,5.6,65,0.00,,,0.00,WUHU21623XXSP,2013-04-20 13:00:00,
2013-04-20 09:05:00,29.3,19.3,30.51,ESE,112,2.5,2.5,66,0.00,,,0.00,WUHU21623XXSP,2013-04-20 13:05:00,
2013-04-20 09:10:00,29.8,19.4,30.52,East,90,3.6,3.6,65,0.00,,,0.00,WUHU21623XXSP,2013-04-20 13:10:00,
2013-04-20 09:15:00,30.0,19.2,30.52,SSE,157,0.0,5.4,64,0.00,,,0.00,WUHU21623XXSP,2013-04-20 13:15:00,
2013-04-20 09:20:00,30.6,19.4,30.52,ENE,67,4.5,6.7,63,0.00,,,0.00,WUHU21623XXSP,2013-04-20 13:20:00,
2013-04-20 09:25:00,30.7,19.6,30.53,East,90,0.0,6.7,63,0.00,,,0.00,WUHU21623XXSP,2013-04-20 13:25:00,
2013-04-20 09:30:00,31.1,19.6,30.53,East,90,2.7,6.3,62,0.00,,,0.00,WUHU21623XXSP,2013-04-20 13:30:00,
2013-04-20 09:35:00,31.3,19.8,30.53,WSW,247,1.6,6.3,62,0.00,,,0.00,WUHU21623XXSP,2013-04-20 13:35:00,
2013-04-20 09:40:00,31.3,19.4,30.53,ESE,112,1.6,2.5,61,0.00,,,0.00,WUHU21623XXSP,2013-04-20 13:40:00,
2013-04-20 09:45:00,31.3,19.0,30.54,ESE,112,0.0,2.5,60,0.00,,,0.00,WUHU21623XXSP,2013-04-20 13:45:00,
2013-04-20 09:50:00,31.3,19.0,30.54,SE,135,2.7,2.7,60,0.00,,,0.00,WUHU21623XXSP,2013-04-20 13:50:00,
2013-04-20 09:55:00,31.6,19.4,30.55,East,90,4.0,4.0,60,0.00,,,0.00,WUHU21623XXSP,2013-04-20 13:55:00,
2013-04-20 10:00:00,32.0,20.1,30.55,ESE,112,0.0,4.0,61,0.00,,,0.00,WUHU21623XXSP,2013-04-20 14:00:00,
2013-04-20 10:05:00,32.5,19.8,30.55,East,90,3.4,4.0,59,0.00,,,0.00,WUHU21623XXSP,2013-04-20 14:05:00,
2013-04-20 10:10:00,32.2,19.1,30.56,East,90,4.3,4.3,58,0.00,,,0.00,WUHU21623XXSP,2013-04-20 14:10:00,
2013-04-20 10:15:00,32.2,19.1,30.56,SSE,157,0.9,4.3,58,0.00,,,0.00,WUHU21623XXSP,2013-04-20 14:15:00,
2013-04-20 10:20:00,32.5,19.4,30.56,East,90,4.0,4.0,58,0.00,,,0.00,WUHU21623XXSP,2013-04-20 14:20:00,
2013-04-20 10:25:00,33.1,19.9,30.56,NE,45,0.0,5.1,58,0.00,,,0.00,WUHU21623XXSP,2013-04-20 14:25:00,
2013-04-20 10:30:00,33.6,20.8,30.58,East,90,3.6,5.1,59,0.00,,,0.00,WUHU21623XXSP,2013-04-20 14:30:00,
2013-04-20 10:35:00,33.4,19.8,30.58,NE,45,2.5,5.8,57,0.00,,,0.00,WUHU21623XXSP,2013-04-20 14:35:00,
2013-04-20 10:40:00,33.6,19.9,30.58,SE,135,3.6,5.8,57,0.00,,,0.00,WUHU21623XXSP,2013-04-20 14:40:00,
2013-04-20 10:45:00,33.6,19.9,30.59,ENE,67,4.5,6.5,57,0.00,,,0.00,WUHU21623XXSP,2013-04-20 14:45:00,
2013-04-20 10:50:00,33.6,19.9,30.59,East,90,2.7,6.5,57,0.00,,,0.00,WUHU21623XXSP,2013-04-20 14:50:00,
2013-04-20 10:55:00,33.6,19.5,30.59,ESE,112,2.2,7.6,56,0.00,,,0.00,WUHU21623XXSP,2013-04-20 14:55:00,
2013-04-20 11:00:00,33.8,20.1,30.59,ESE,112,0.0,7.6,57,0.00,,,0.00,WUHU21623XXSP,2013-04-20 15:00:00,
2013-04-20 11:05:00,33.8,19.7,30.60,East,90,4.3,4.9,56,0.00,,,0.00,WUHU21623XXSP,2013-04-20 15:05:00,
2013-04-20 11:10:00,33.6,19.5,30.60,WSW,247,0.0,7.4,56,0.00,,,0.00,WUHU21623XXSP,2013-04-20 15:10:00,
2013-04-20 11:15:00,33.6,19.9,30.60,West,270,4.9,7.4,57,0.00,,,0.00,WUHU21623XXSP,2013-04-20 15:15:00,
2013-04-20 11:20:00,34.0,19.8,30.60,East,90,1.8,4.9,56,0.00,,,0.00,WUHU21623XXSP,2013-04-20 15:20:00,
2013-04-20 11:25:00,34.2,19.6,30.60,East,90,2.0,3.6,55,0.00,,,0.00,WUHU21623XXSP,2013-04-20 15:25:00,
2013-04-20 11:30:00,34.2,19.6,30.60,East,90,4.7,4.7,55,0.00,,,0.00,WUHU21623XXSP,2013-04-20 15:30:00,
2013-04-20 11:35:00,34.5,20.4,30.61,WSW,247,3.8,4.9,56,0.00,,,0.00,WUHU21623XXSP,2013-04-20 15:35:00,
2013-04-20 11:40:00,35.2,21.1,30.61,SSW,202,2.0,4.9,56,0.00,,,0.00,WUHU21623XXSP,2013-04-20 15:40:00,
2013-04-20 11:45:00,35.2,20.7,30.61,NNW,337,2.7,3.6,55,0.00,,,0.00,WUHU21623XXSP,2013-04-20 15:45:00,
2013-04-20 11:50:00,35.2,20.7,30.61,East,90,4.5,4.5,55,0.00,,,0.00,WUHU21623XXSP,2013-04-20 15:50:00,
2013-04-20 11:55:00,34.9,19.9,30.62,ENE,67,8.3,8.3,54,0.00,,,0.00,WUHU21623XXSP,2013-04-20 15:55:00,
2013-04-20 12:00:00,34.9,20.3,30.62,South,180,2.5,8.3,55,0.00,,,0.00,WUHU21623XXSP,2013-04-20 16:00:00,
2013-04-20 12:05:00,35.2,20.7,30.63,ESE,112,4.9,4.9,55,0.00,,,0.00,WUHU21623XXSP,2013-04-20 16:05:00,
2013-04-20 12:10:00,34.9,20.3,30.63,ESE,112,1.1,5.8,55,0.00,,,0.00,WUHU21623XXSP,2013-04-20 16:10:00,
2013-04-20 12:15:00,34.9,20.3,30.63,WSW,247,0.0,5.8,55,0.00,,,0.00,WUHU21623XXSP,2013-04-20 16:15:00,
2013-04-20 12:21:00,35.2,20.2,30.63,ENE,67,7.8,7.8,54,0.00,,,0.00,WUHU21623XXSP,2013-04-20 16:21:00,
2013-04-20 12:26:00,36.0,21.3,30.63,SSE,157,2.2,7.8,55,0.00,,,0.00,WUHU21623XXSP,2013-04-20 16:26:00,
2013-04-20 12:31:00,36.3,21.2,30.63,ENE,67,4.5,4.5,54,0.00,,,0.00,WUHU21623XXSP,2013-04-20 16:31:00,
2013-04-20 12:36:00,36.3,21.2,30.64,WNW,292,0.0,4.5,54,0.00,,,0.00,WUHU21623XXSP,2013-04-20 16:36:00,
2013-04-20 12:41:00,36.5,21.0,30.63,East,90,2.0,3.1,53,0.00,,,0.00,WUHU21623XXSP,2013-04-20 16:41:00,
2013-04-20 12:46:00,36.5,21.0,30.64,NE,45,3.4,3.6,53,0.00,,,0.00,WUHU21623XXSP,2013-04-20 16:46:00,
2013-04-20 12:51:00,36.5,21.0,30.65,SE,135,7.8,7.8,53,0.00,,,0.00,WUHU21623XXSP,2013-04-20 16:51:00,
2013-04-20 12:56:00,36.7,21.1,30.64,ESE,112,1.3,7.8,53,0.00,,,0.00,WUHU21623XXSP,2013-04-20 16:56:00,
2013-04-20 13:01:00,36.7,20.7,30.65,ENE,67,5.1,5.1,52,0.00,,,0.00,WUHU21623XXSP,2013-04-20 17:01:00,
2013-04-20 13:06:00,36.7,20.7,30.65,North,0,0.9,5.1,52,0.00,,,0.00,WUHU21623XXSP,2013-04-20 17:06:00,
2013-04-20 13:11:00,36.7,20.7,30.65,South,180,3.6,4.5,52,0.00,,,0.00,WUHU21623XXSP,2013-04-20 17:11:00,
2013-04-20 13:16:00,37.0,21.0,30.66,South,180,0.0,5.6,52,0.00,,,0.00,WUHU21623XXSP,2013-04-20 17:16:00,
2013-04-20 13:21:00,37.4,21.3,30.66,ESE,112,4.5,5.6,52,0.00,,,0.00,WUHU21623XXSP,2013-04-20 17:21:00,
2013-04-20 13:26:00,37.2,20.8,30.65,East,90,3.1,4.5,51,0.00,,,0.00,WUHU21623XXSP,2013-04-20 17:26:00,
2013-04-20 13:31:00,37.6,21.5,30.66,South,180,4.7,4.7,52,0.00,,,0.00,WUHU21623XXSP,2013-04-20 17:31:00,
2013-04-20 13:36:00,37.6,20.6,30.66,East,90,0.0,4.7,50,0.00,,,0.00,WUHU21623XXSP,2013-04-20 17:36:00,
2013-04-20 13:41:00,37.9,21.0,30.66,NNW,337,0.0,5.1,50,0.00,,,0.00,WUHU21623XXSP,2013-04-20 17:41:00,
2013-04-20 13:46:00,38.7,21.6,30.66,WSW,247,0.0,5.1,50,0.00,,,0.00,WUHU21623XXSP,2013-04-20 17:46:00,
2013-04-20 13:51:00,38.8,21.8,30.66,WSW,247,3.1,3.1,50,0.00,,,0.00,WUHU21623XXSP,2013-04-20 17:51:00,
2013-04-20 13:56:00,39.0,21.9,30.67,ESE,112,1.6,3.1,50,0.00,,,0.00,WUHU21623XXSP,2013-04-20 17:56:00,
2013-04-20 14:01:00,39.0,21.9,30.66,East,90,2.2,3.6,50,0.00,,,0.00,WUHU21623XXSP,2013-04-20 18:01:00,
2013-04-20 14:06:00,38.8,21.3,30.67,ESE,112,0.0,3.6,49,0.00,,,0.00,WUHU21623XXSP,2013-04-20 18:06:00,
2013-04-20 14:11:00,39.0,21.9,30.67,ESE,112,0.0,6.0,50,0.00,,,0.00,WUHU21623XXSP,2013-04-20 18:11:00,
2013-04-20 14:16:00,39.0,21.9,30.68,NNW,337,5.4,6.0,50,0.00,,,0.00,WUHU21623XXSP,2013-04-20 18:16:00,
2013-04-20 14:21:00,39.0,21.9,30.68,ENE,67,3.6,5.4,50,0.00,,,0.00,WUHU21623XXSP,2013-04-20 18:21:00,
2013-04-20 14:26:00,38.8,21.3,30.69,ESE,112,4.7,13.0,49,0.00,,,0.00,WUHU21623XXSP,2013-04-20 18:26:00,
2013-04-20 14:31:00,38.3,21.3,30.69,North,0,0.0,13.0,50,0.00,,,0.00,WUHU21623XXSP,2013-04-20 18:31:00,
2013-04-20 14:37:00,38.1,21.6,30.69,ESE,112,5.1,5.1,51,0.00,,,0.00,WUHU21623XXSP,2013-04-20 18:37:00,
2013-04-20 15:35:00,37.8,21.7,30.73,ESE,113,2.2,2.2,52,0.00,,,0.00,WUHU21623XXSP,2013-04-20 19:35:00,
2013-04-20 16:04:00,38.1,21.6,30.74,SE,135,3.4,3.4,51,0.00,,,0.00,WUHU21623XXSP,2013-04-20 20:04:00,
2013-04-20 16:09:00,38.1,21.6,30.74,East,90,0.0,4.7,51,0.00,,,0.00,WUHU21623XXSP,2013-04-20 20:09:00,
2013-04-20 16:14:00,38.5,21.3,30.74,WSW,247,2.7,7.4,50,0.00,,,0.00,WUHU21623XXSP,2013-04-20 20:14:00,
2013-04-20 16:19:00,38.5,21.5,30.74,East,90,3.4,7.4,50,0.00,,,0.00,WUHU21623XXSP,2013-04-20 20:19:00,
2013-04-20 16:24:00,38.5,21.5,30.74,East,90,3.1,3.6,50,0.00,,,0.00,WUHU21623XXSP,2013-04-20 20:24:00,
2013-04-20 16:30:00,38.5,21.5,30.74,ESE,112,2.9,3.1,50,0.00,,,0.00,WUHU21623XXSP,2013-04-20 20:30:00,
2013-04-20 16:35:00,38.5,21.5,30.75,West,270,0.7,7.2,50,0.00,,,0.00,WUHU21623XXSP,2013-04-20 20:35:00,
2013-04-20 16:40:00,38.5,21.5,30.75,South,180,0.0,7.2,50,0.00,,,0.00,WUHU21623XXSP,2013-04-20 20:40:00,
2013-04-20 16:45:00,38.5,21.5,30.75,SE,135,5.4,5.4,50,0.00,,,0.00,WUHU21623XXSP,2013-04-20 20:45:00,
2013-04-20 16:50:00,38.8,22.2,30.75,East,90,3.4,5.4,51,0.00,,,0.00,WUHU21623XXSP,2013-04-20 20:50:00,
2013-04-20 16:55:00,38.8,21.8,30.75,SSE,157,1.3,3.6,50,0.00,,,0.00,WUHU21623XXSP,2013-04-20 20:55:00,
2013-04-20 17:00:00,38.8,21.8,30.75,ESE,112,1.3,1.3,50,0.00,,,0.00,WUHU21623XXSP,2013-04-20 21:00:00,
2013-04-20 17:05:00,38.5,21.5,30.76,West,270,2.5,2.5,50,0.00,,,0.00,WUHU21623XXSP,2013-04-20 21:05:00,
2013-04-20 17:10:00,38.1,21.1,30.76,ESE,112,2.7,5.6,50,0.00,,,0.00,WUHU21623XXSP,2013-04-20 21:10:00,
2013-04-20 17:15:00,38.3,21.7,30.76,SSW,202,0.0,5.6,51,0.00,,,0.00,WUHU21623XXSP,2013-04-20 21:15:00,
2013-04-20 17:20:00,38.5,21.9,30.77,East,90,3.4,3.4,51,0.00,,,0.00,WUHU21623XXSP,2013-04-20 21:20:00,
2013-04-20 17:25:00,38.7,22.0,30.77,East,90,1.6,3.8,51,0.00,,,0.00,WUHU21623XXSP,2013-04-20 21:25:00,
2013-04-20 17:30:00,38.5,21.9,30.77,East,90,0.0,4.5,51,0.00,,,0.00,WUHU21623XXSP,2013-04-20 21:30:00,
2013-04-20 17:35:00,38.3,21.7,30.77,East,90,6.5,6.5,51,0.00,,,0.00,WUHU21623XXSP,2013-04-20 21:35:00,
2013-04-20 17:40:00,39.4,22.7,30.77,East,90,4.9,6.5,51,0.00,,,0.00,WUHU21623XXSP,2013-04-20 21:40:00,
2013-04-20 17:45:00,39.6,22.4,30.78,ESE,112,0.0,4.9,50,0.00,,,0.00,WUHU21623XXSP,2013-04-20 21:45:00,
2013-04-20 17:50:00,39.4,21.7,30.78,ESE,112,0.0,5.4,49,0.00,,,0.00,WUHU21623XXSP,2013-04-20 21:50:00,
2013-04-20 17:55:00,39.0,21.9,30.78,SSW,202,0.0,5.4,50,0.00,,,0.00,WUHU21623XXSP,2013-04-20 21:55:00,
2013-04-20 18:00:00,38.5,21.9,30.79,East,90,0.0,5.4,51,0.00,,,0.00,WUHU21623XXSP,2013-04-20 22:00:00,
2013-04-20 18:05:00,38.5,21.9,30.79,SSE,157,2.0,5.4,51,0.00,,,0.00,WUHU21623XXSP,2013-04-20 22:05:00,
2013-04-20 18:10:00,38.5,21.9,30.79,East,90,1.6,5.4,51,0.00,,,0.00,WUHU21623XXSP,2013-04-20 22:10:00,
2013-04-20 18:15:00,38.7,21.6,30.79,West,270,0.0,4.9,50,0.00,,,0.00,WUHU21623XXSP,2013-04-20 22:15:00,
2013-04-20 18:20:00,38.8,21.3,30.79,ESE,112,2.5,4.9,49,0.00,,,0.00,WUHU21623XXSP,2013-04-20 22:20:00,
2013-04-20 18:25:00,38.8,21.3,30.79,East,90,2.0,4.3,49,0.00,,,0.00,WUHU21623XXSP,2013-04-20 22:25:00,
2013-04-20 18:30:00,39.0,21.9,30.79,West,270,0.0,4.3,50,0.00,,,0.00,WUHU21623XXSP,2013-04-20 22:30:00,
2013-04-20 18:35:00,39.2,21.6,30.79,East,90,2.5,3.1,49,0.00,,,0.00,WUHU21623XXSP,2013-04-20 22:35:00,
2013-04-20 18:40:00,39.0,21.4,30.80,NE,45,2.0,3.1,49,0.00,,,0.00,WUHU21623XXSP,2013-04-20 22:40:00,
2013-04-20 18:45:00,38.8,21.3,30.80,ENE,67,1.6,5.1,49,0.00,,,0.00,WUHU21623XXSP,2013-04-20 22:45:00,
2013-04-20 18:50:00,39.0,21.4,30.80,South,180,1.3,5.1,49,0.00,,,0.00,WUHU21623XXSP,2013-04-20 22:50:00,
2013-04-20 18:55:00,39.0,20.9,30.80,ESE,112,3.8,3.8,48,0.00,,,0.00,WUHU21623XXSP,2013-04-20 22:55:00,
2013-04-20 19:00:00,39.0,20.9,30.80,ENE,67,0.9,3.8,48,0.00,,,0.00,WUHU21623XXSP,2013-04-20 23:00:00,
2013-04-20 19:05:00,39.6,21.9,30.81,SSW,202,0.0,3.8,49,0.00,,,0.00,WUHU21623XXSP,2013-04-20 23:05:00,
2013-04-20 19:10:00,39.7,22.1,30.80,ENE,67,0.0,3.8,49,0.00,,,0.00,WUHU21623XXSP,2013-04-20 23:10:00,
2013-04-20 19:15:00,39.7,22.1,30.81,ENE,67,0.0,0.0,49,0.00,,,0.00,WUHU21623XXSP,2013-04-20 23:15:00,
2013-04-20 19:20:00,39.7,22.1,30.81,East,90,0.0,0.0,49,0.00,,,0.00,WUHU21623XXSP,2013-04-20 23:20:00,
2013-04-20 19:25:00,39.7,21.5,30.81,East,90,2.2,2.9,48,0.00,,,0.00,WUHU21623XXSP,2013-04-20 23:25:00,
2013-04-20 19:30:00,39.4,21.2,30.82,WSW,247,0.0,2.9,48,0.00,,,0.00,WUHU21623XXSP,2013-04-20 23:30:00,
2013-04-20 19:36:00,38.7,20.6,30.82,ESE,112,1.6,2.0,48,0.00,,,0.00,WUHU21623XXSP,2013-04-20 23:36:00,
2013-04-20 19:41:00,38.1,20.1,30.82,ESE,112,2.9,2.9,48,0.00,,,0.00,WUHU21623XXSP,2013-04-20 23:41:00,
2013-04-20 19:46:00,37.8,19.8,30.82,South,180,0.0,2.9,48,0.00,,,0.00,WUHU21623XXSP,2013-04-20 23:46:00,
2013-04-20 19:51:00,37.0,19.6,30.82,South,180,1.3,1.3,49,0.00,,,0.00,WUHU21623XXSP,2013-04-20 23:51:00,
2013-04-20 19:56:00,36.9,19.5,30.83,SSE,157,0.0,1.3,49,0.00,,,0.00,WUHU21623XXSP,2013-04-20 23:56:00,
2013-04-20 20:01:00,36.3,19.5,30.83,ESE,112,0.0,0.0,50,0.00,,,0.00,WUHU21623XXSP,2013-04-21 00:01:00,
2013-04-20 20:06:00,36.3,19.5,30.83,SE,135,0.0,0.0,50,0.00,,,0.00,WUHU21623XXSP,2013-04-21 00:06:00,
2013-04-20 20:11:00,36.0,19.2,30.83,East,90,0.0,0.0,50,0.00,,,0.00,WUHU21623XXSP,2013-04-21 00:11:00,
2013-04-20 20:16:00,35.4,19.1,30.84,SW,225,0.0,0.0,51,0.00,,,0.00,WUHU21623XXSP,2013-04-21 00:16:00,
2013-04-20 20:21:00,35.2,18.9,30.84,SW,225,0.0,0.0,51,0.00,,,0.00,WUHU21623XXSP,2013-04-21 00:21:00,
2013-04-20 20:26:00,34.9,18.6,30.84,SSW,202,0.0,0.0,51,0.00,,,0.00,WUHU21623XXSP,2013-04-21 00:26:00,
2013-04-20 20:31:00,34.7,18.8,30.84,NNE,22,0.0,0.0,52,0.00,,,0.00,WUHU21623XXSP,2013-04-21 00:31:00,
2013-04-20 20:36:00,34.3,18.5,30.84,NE,45,0.0,0.0,52,0.00,,,0.00,WUHU21623XXSP,2013-04-21 00:36:00,
2013-04-20 20:41:00,34.0,18.1,30.85,West,270,0.0,0.0,52,0.00,,,0.00,WUHU21623XXSP,2013-04-21 00:41:00,
2013-04-20 20:46:00,33.6,18.2,30.85,West,270,0.0,0.0,53,0.00,,,0.00,WUHU21623XXSP,2013-04-21 00:46:00,
2013-04-20 20:51:00,33.4,18.0,30.86,West,270,0.0,0.0,53,0.00,,,0.00,WUHU21623XXSP,2013-04-21 00:51:00,
2013-04-20 20:56:00,33.1,18.1,30.86,West,270,0.0,0.0,54,0.00,,,0.00,WUHU21623XXSP,2013-04-21 00:56:00,
2013-04-20 21:01:00,32.7,17.8,30.86,West,270,0.0,0.0,54,0.00,,,0.00,WUHU21623XXSP,2013-04-21 01:01:00,
2013-04-20 21:06:00,32.5,17.7,30.86,West,270,0.0,0.0,54,0.00,,,0.00,WUHU21623XXSP,2013-04-21 01:06:00,
2013-04-20 21:11:00,32.0,17.8,30.86,West,270,0.0,0.0,55,0.00,,,0.00,WUHU21623XXSP,2013-04-21 01:11:00,
2013-04-20 21:16:00,31.8,17.9,30.86,West,270,0.0,0.0,56,0.00,,,0.00,WUHU21623XXSP,2013-04-21 01:16:00,
2013-04-20 21:21:00,31.6,18.1,30.87,West,270,0.0,0.0,57,0.00,,,0.00,WUHU21623XXSP,2013-04-21 01:21:00,
2013-04-20 21:26:00,31.1,17.6,30.87,West,270,0.0,0.0,57,0.00,,,0.00,WUHU21623XXSP,2013-04-21 01:26:00,
2013-04-20 21:31:00,30.9,17.4,30.87,West,270,0.0,0.0,57,0.00,,,0.00,WUHU21623XXSP,2013-04-21 01:31:00,
2013-04-20 21:36:00,30.7,17.2,30.87,West,270,0.0,0.0,57,0.00,,,0.00,WUHU21623XXSP,2013-04-21 01:36:00,
2013-04-20 21:42:00,30.4,17.3,30.88,West,270,0.0,0.0,58,0.00,,,0.00,WUHU21623XXSP,2013-04-21 01:42:00,
2013-04-20 21:47:00,30.2,17.1,30.88,West,270,0.0,0.0,58,0.00,,,0.00,WUHU21623XXSP,2013-04-21 01:47:00,
2013-04-20 21:52:00,30.0,17.4,30.88,West,270,0.0,0.0,59,0.00,,,0.00,WUHU21623XXSP,2013-04-21 01:52:00,
2013-04-20 21:57:00,29.8,17.2,30.89,West,270,0.0,0.0,60,0.00,,,0.00,WUHU21623XXSP,2013-04-21 01:57:00,
2013-04-20 22:02:00,29.5,17.5,30.89,West,270,0.0,0.0,60,0.00,,,0.00,WUHU21623XXSP,2013-04-21 02:02:00,
2013-04-20 22:07:00,29.5,17.3,30.89,West,270,0.0,0.0,60,0.00,,,0.00,WUHU21623XXSP,2013-04-21 02:07:00,
2013-04-20 22:12:00,29.3,17.5,30.89,West,270,0.0,0.0,61,0.00,,,0.00,WUHU21623XXSP,2013-04-21 02:12:00,
2013-04-20 22:17:00,29.1,17.3,30.89,West,270,0.0,0.0,61,0.00,,,0.00,WUHU21623XXSP,2013-04-21 02:17:00,
2013-04-20 22:22:00,29.1,17.3,30.90,West,270,0.0,0.0,61,0.00,,,0.00,WUHU21623XXSP,2013-04-21 02:22:00,
2013-04-20 22:27:00,28.9,17.5,30.90,West,270,0.0,0.0,62,0.00,,,0.00,WUHU21623XXSP,2013-04-21 02:27:00,
2013-04-20 22:32:00,28.8,17.4,30.90,West,270,0.0,0.0,62,0.00,,,0.00,WUHU21623XXSP,2013-04-21 02:32:00,
2013-04-20 22:37:00,28.6,17.2,30.90,West,270,0.0,0.0,62,0.00,,,0.00,WUHU21623XXSP,2013-04-21 02:37:00,
2013-04-20 22:42:00,28.6,17.6,30.90,West,270,0.0,0.0,63,0.00,,,0.00,WUHU21623XXSP,2013-04-21 02:42:00,
2013-04-20 22:47:00,28.4,17.4,30.91,West,270,0.0,0.0,63,0.00,,,0.00,WUHU21623XXSP,2013-04-21 02:47:00,
2013-04-20 22:52:00,28.2,17.6,30.90,West,270,0.0,0.0,64,0.00,,,0.00,WUHU21623XXSP,2013-04-21 02:52:00,
2013-04-20 22:57:00,28.2,17.6,30.91,West,270,0.0,0.0,64,0.00,,,0.00,WUHU21623XXSP,2013-04-21 02:57:00,
2013-04-20 23:02:00,28.0,17.4,30.91,West,270,0.0,0.0,64,0.00,,,0.00,WUHU21623XXSP,2013-04-21 03:02:00,
2013-04-20 23:07:00,28.0,17.4,30.91,West,270,0.0,0.0,64,0.00,,,0.00,WUHU21623XXSP,2013-04-21 03:07:00,
2013-04-20 23:12:00,27.9,17.6,30.92,West,270,0.0,0.0,65,0.00,,,0.00,WUHU21623XXSP,2013-04-21 03:12:00,
2013-04-20 23:17:00,27.7,17.4,30.92,West,270,0.0,0.0,65,0.00,,,0.00,WUHU21623XXSP,2013-04-21 03:17:00,
2013-04-20 23:22:00,27.7,17.4,30.92,West,270,0.0,0.0,65,0.00,,,0.00,WUHU21623XXSP,2013-04-21 03:22:00,
2013-04-20 23:27:00,27.5,17.2,30.92,West,270,0.0,0.0,65,0.00,,,0.00,WUHU21623XXSP,2013-04-21 03:27:00,
2013-04-20 23:32:00,27.3,17.4,30.92,West,270,0.0,0.0,66,0.00,,,0.00,WUHU21623XXSP,2013-04-21 03:32:00,
2013-04-20 23:37:00,27.3,17.4,30.93,West,270,0.0,0.0,66,0.00,,,0.00,WUHU21623XXSP,2013-04-21 03:37:00,
2013-04-20 23:42:00,27.1,17.2,30.93,West,270,0.0,0.0,66,0.00,,,0.00,WUHU21623XXSP,2013-04-21 03:42:00,
2013-04-20 23:47:00,27.1,17.2,30.94,West,270,0.0,0.0,66,0.00,,,0.00,WUHU21623XXSP,2013-04-21 03:47:00,
2013-04-20 23:52:00,27.0,17.1,30.93,West,270,0.0,0.0,66,0.00,,,0.00,WUHU21623XXSP,2013-04-21 03:52:00,
2013-04-20 23:57:00,26.8,17.2,30.94,West,270,0.0,0.0,67,0.00,,,0.00,WUHU21623XXSP,2013-04-21 03:57:00,